This demonstration page uses our WeatherBlox Daily Observations layout. Learn more.

Left ArrowRight Arrow

41.86663, -103.66717

Hourly Observations for August 9, 2021

Temp ( °F °C ) Dew Point ( °F °C ) Humidity (%) Winds ( mph kmh ) Pressure ( in mb ) Visibility ( mi km ) Precip ( " mm )
12:53 am 00:53 Clear 68 20 49 9.4 51 51 E 6 9 29.67 1005 8 13 N/A
1:53 am 01:53 Clear 66 18.9 49 9.4 54 54 E 8 13 29.66 1004 8 13 N/A
2:53 am 02:53 Clear 64 17.8 48 8.9 56 56 NNW 3 6 29.67 1005 7 11 N/A
3:53 am 03:53 Clear 62 16.7 47 8.3 58 58 NW 3 6 29.68 1005 7 11 N/A
4:53 am 04:53 Clear 57 13.9 49 9.4 74 74 WNW 7 11 29.72 1006 7 11 N/A
5:53 am 05:53 Clear 59 15 48 8.9 67 67 W 9 15 29.76 1008 7 11 N/A
6:53 am 06:53 Hazy 61 16.1 48 8.9 63 63 WNW 14 22 29.78 1008 4 6 N/A
7:53 am 07:53 Hazy 63 17.2 48 8.9 58 58 WNW 13 20 29.80 1009 5 8 N/A
8:53 am 08:53 Hazy 66 18.9 48 8.9 52 52 WNW 15 24 29.83 1010 4 6 N/A
9:53 am 09:53 Hazy 69 20.6 48 8.9 47 47 WNW 12 19 29.84 1010 4 6 N/A
10:53 am 10:53 Hazy 73 22.8 49 9.4 43 43 W 8 13 29.83 1010 5 8 N/A
11:53 am 11:53 Hazy 78 25.6 49 9.4 36 36 WNW 8 13 29.82 1010 6 10 N/A
12:53 pm 12:53 Hazy 82 27.8 49 9.4 32 32 VRB 6 9 29.79 1009 6 10 N/A
1:53 pm 13:53 Hazy 87 30.6 49 9.4 27 27 WNW 6 9 29.76 1008 6 10 N/A
2:53 pm 14:53 Hazy 88 31.1 49 9.4 26 26 SSW 8 13 29.75 1008 6 10 N/A
3:53 pm 15:53 Hazy 87 30.6 54 12.2 32 32 SE 7 11 29.76 1008 6 10 N/A
4:53 pm 16:53 Hazy 89 31.7 54 12.2 30 30 N 8 13 29.76 1008 6 10 N/A
5:53 pm 17:53 Hazy 85 29.4 57 13.9 39 39 NE 5 7 29.77 1008 6 10 N/A
6:53 pm 18:53 Mostly Sunny 84 28.9 49 9.4 30 30 E 12 19 29.78 1008 7 11 N/A
7:53 pm 19:53 Sunny 76 24.4 51 10.6 42 42 E 3 6 29.77 1008 9 14 N/A
8:53 pm 20:53 Clear 74 23.3 49 9.4 41 41 SSW 6 9 29.81 1009 10 16 N/A
9:53 pm 21:53 Clear 74 23.3 47 8.3 38 38 NNE 3 6 29.84 1011 9 14 N/A
10:53 pm 22:53 Clear 68 20 50 10 53 53 E 12 19 29.85 1011 10 16 N/A
11:53 pm 23:53 Clear 66 18.9 50 10 56 56 SSE 3 6 29.84 1010 10 16 N/A

Powered by AerisWeather